[[{"header":{"parameterUnit":"m.s-1","parameterCategory":1,"la1":30.2991,"la2":30.254,"lo1":-89.0895,"lo2":-89.0444,"dy":0.0017,"dx":0.0017,"nx":28,"ny":28,"refTime":"2025-05-31T03:00:00:Z","depth":0,"parameterNumber":2,"parameterNumberName":"U-component_of_WINDS"},"data":[0,0,0,0,0,0,0,0,0,0,0,0,0,0,0,0,0,0,0,0,0,0,0,0,0,0,0,0,0,0,0,0,0,0,0,0,0,0,0,0,0,0,0,0,0,0,0,0,0,0,0,0,0,0,0,0,0,0,1.4516,1.4517,0,1.4622,1.4623,1.4625,1.4657,1.4657,1.4656,1.4656,1.4765,1.4768,1.4771,0,0,0,0,0,0,0,0,0,0,0,0,0,1.434,1.4343,1.4516,1.4517,1.4519,1.4622,1.4624,1.4625,1.4658,1.4657,1.4656,1.4656,1.4764,1.4768,1.4772,0,0,0,0,0,0,0,0,0,0,0,0,0,1.4428,1.4344,1.4516,1.4547,1.4551,1.4622,1.4624,1.4625,1.4658,1.4657,1.4656,1.4655,1.4762,1.4767,1.4772,1.4819,0,0,1.4788,1.479,0,0,0,0,0,0,0,0,1.4423,1.4434,1.4541,1.4545,1.455,1.4626,1.4601,1.469,1.4658,1.4617,1.4656,1.4655,1.4719,1.4728,1.4749,1.4824,1.4829,1.4788,1.4791,1.4794,1.4795,0,0,0,0,0,0,0,1.4417,1.443,1.4558,1.4543,1.4548,1.4556,1.4567,1.4618,1.4671,1.4621,1.4623,1.4636,1.4721,1.4744,1.4752,1.483,1.4788,1.4793,1.4796,1.4798,1.4946,1.4946,0,0,0,0,0,0,1.4405,1.4425,1.4555,1.4561,1.4483,1.4559,1.4573,1.4602,1.4671,1.4681,1.4636,1.4637,1.4736,1.4746,1.4756,1.4813,1.4793,1.4798,1.4801,1.4945,1.4946,1.4947,0,0,0,0,0,0,1.4402,1.4417,1.455,1.4494,1.4511,1.4563,1.4596,1.4605,1.4628,1.4682,1.4692,1.465,1.4736,1.4749,1.4802,1.4818,1.4801,1.4805,1.4944,1.4945,1.4946,1.4929,0,0,0,0,0,0,1.4396,1.4415,1.4434,1.4494,1.4514,1.4595,1.4597,1.4607,1.4636,1.4638,1.4698,1.4707,1.4736,1.4795,1.4807,1.4824,1.4809,1.4943,1.4944,1.4946,1.4929,1.493,1.4931,0,0,0,0,0,1.439,1.4426,1.4435,1.445,1.4539,1.4596,1.4608,1.4641,1.4638,1.4656,1.4691,1.4705,1.4814,1.48,1.4815,1.4833,1.4942,1.4944,1.4946,1.4928,1.493,1.4931,0,0,0,0,0,0,1.4367,1.4434,1.4445,1.4502,1.4543,1.4602,1.4627,1.4642,1.4685,1.4685,1.4724,1.4737,1.4787,1.4816,1.4799,1.488,1.4878,1.4883,1.486,1.4862,1.4863,1.4854,1.4813,0,0,0,0,0,1.4368,1.441,1.4466,1.451,1.453,1.4575,1.4601,1.4622,1.4667,1.4685,1.4723,1.4766,1.4809,1.4837,1.488,1.4933,1.4945,1.4953,1.4954,1.4954,1.4958,1.4985,1.4989,1.4953,1.4953,1.4953,0,0,1.4372,1.4414,1.4438,1.4507,1.4541,1.4582,1.4589,1.4633,1.4663,1.4691,1.4744,1.4773,1.4823,1.4875,1.49,1.4901,1.497,1.4957,1.4957,1.496,1.4988,1.4991,1.4994,1.4955,1.4954,1.4954,0,0,1.4399,1.4435,1.4475,1.4509,1.4561,1.459,1.4599,1.4655,1.4676,1.4729,1.475,1.4786,1.4861,1.4895,1.4921,1.4958,1.4972,1.4971,1.4976,1.5003,1.5005,1.5008,1.5019,1.5023,1.4975,1.4975,1.4975,0,1.4396,1.4459,1.4493,1.4535,1.4564,1.459,1.463,1.4661,1.4724,1.4743,1.4743,1.4835,1.4871,1.493,1.4938,1.496,1.4971,1.4964,1.5002,1.5005,1.5008,1.502,1.5024,1.4974,1.4974,1.4974,1.4974,0,1.4453,1.4496,1.4522,1.4581,1.4613,1.4653,1.4692,1.472,1.4738,1.4766,1.4819,1.4862,1.4913,1.4929,1.4948,1.499,1.4989,1.4995,1.4993,1.501,1.5022,1.5026,1.4973,1.4973,1.4974,1.4974,0,0,1.4469,1.4545,1.4554,1.458,1.4638,1.4672,1.4712,1.4762,1.4784,1.4826,1.486,1.4922,1.4927,1.4957,1.498,1.5003,1.5026,1.5006,1.5008,1.5007,1.5074,1.5068,1.5073,1.5036,1.5037,1.5038,1.5069,0,1.4502,1.4576,1.4607,1.4666,1.4705,1.4729,1.4764,1.4803,1.483,1.4867,1.4897,1.4939,1.4944,1.4962,1.4986,1.5018,1.504,1.5017,1.5067,1.5069,1.5053,1.5079,1.5074,1.5102,1.5074,1.5075,1.5075,0,1.4551,1.4592,1.4655,1.4706,1.4723,1.4755,1.4801,1.4836,1.488,1.4898,1.493,1.4951,1.4993,1.4989,1.5047,1.503,1.5052,1.5071,1.5073,1.5078,1.5073,1.5084,1.5111,1.5115,1.5083,1.5082,1.5082,0,1.4554,1.4625,1.4672,1.4694,1.4755,1.4776,1.4802,1.4845,1.4872,1.4913,1.493,1.4975,1.5,1.5034,1.5065,1.506,1.5119,1.5118,1.5135,1.5134,1.5146,1.5145,1.5176,1.5162,1.5162,1.5162,1.5162,0,1.4587,1.4624,1.4673,1.4702,1.4743,1.4778,1.4818,1.4846,1.4883,1.4917,1.4941,1.4972,1.5012,1.5048,1.5073,1.5116,1.5127,1.5142,1.5148,1.5139,1.5137,1.5154,1.5153,1.5163,1.5163,1.5162,1.5162,0,1.4597,1.4632,1.4684,1.4737,1.4751,1.4779,1.4824,1.4852,1.488,1.4922,1.4933,1.4977,1.502,1.5054,1.5111,1.5128,1.5172,1.518,1.5157,1.516,1.5174,1.5172,1.5217,1.5224,1.5205,1.5206,1.5206,0,1.4615,1.4644,1.47,1.4724,1.475,1.4788,1.4815,1.485,1.4877,1.4928,1.4949,1.4993,1.5031,1.5098,1.5134,1.5177,1.5185,1.5197,1.5191,1.5181,1.5183,1.5181,1.5183,1.5198,1.5198,1.5198,1.5198,0,1.4643,1.4658,1.4697,1.4741,1.4772,1.4809,1.4846,1.4864,1.4905,1.4934,1.4978,1.5006,1.5063,1.5106,1.5152,1.5179,1.5195,1.5199,1.5205,1.5196,1.5182,1.5188,1.5158,1.5198,1.5198,1.5198,1.5198,1.5198,1.4657,1.4683,1.4726,1.4767,1.4798,1.4832,1.486,1.489,1.4927,1.4976,1.4994,1.5038,1.5079,1.5143,1.5169,1.5204,1.5206,1.5214,1.5217,1.5218,1.5216,1.5176,1.5213,1.5213,1.5213,1.5213,1.5213,0,1.4685,1.4713,1.4751,1.4801,1.4833,1.4845,1.4886,1.4912,1.495,1.4987,1.5023,1.5072,1.5114,1.5153,1.5196,1.5216,1.5224,1.5226,1.5225,1.523,1.5213,1.5203,1.5219,1.5219,1.5219,1.5219,1.5219,1.5219,1.4703,1.4747,1.4767,1.4826,1.4854,1.4897,1.4919,1.495,1.4979,1.5033,1.5067,1.5092,1.513,1.5175,1.5214,1.5224,1.5238,1.5238,1.525,1.5233,1.5232,1.5231,1.5222,1.5241,1.5241,1.5265,1.5265,1.5265]},{"header":{"parameterUnit":"m.s-1","parameterCategory":1,"la1":30.2991,"la2":30.254,"lo1":-89.0895,"lo2":-89.0444,"dy":0.0017,"dx":0.0017,"nx":28,"ny":28,"refTime":"2025-05-31T03:00:00:Z","depth":0,"parameterNumber":3,"parameterNumberName":"V-component_of_WINDS"},"data":[0,0,0,0,0,0,0,0,0,0,0,0,0,0,0,0,0,0,0,0,0,0,0,0,0,0,0,0,0,0,0,0,0,0,0,0,0,0,0,0,0,0,0,0,0,0,0,0,0,0,0,0,0,0,0,0,0,0,2.9114,2.9114,0,2.9058,2.9057,2.9057,2.9006,2.9005,2.9005,2.9004,2.8947,2.8946,2.8945,0,0,0,0,0,0,0,0,0,0,0,0,0,2.9176,2.9175,2.9114,2.9113,2.9113,2.9058,2.9057,2.9057,2.9006,2.9005,2.9005,2.9004,2.8947,2.8946,2.8945,0,0,0,0,0,0,0,0,0,0,0,0,0,2.9138,2.9175,2.9114,2.9081,2.9078,2.9058,2.9057,2.9056,2.9006,2.9005,2.9005,2.9004,2.8947,2.8946,2.8944,2.8954,0,0,2.894,2.8939,0,0,0,0,0,0,0,0,2.914,2.9135,2.9087,2.9083,2.9079,2.9038,2.9058,2.9022,2.9007,2.9033,2.9004,2.9003,2.8978,2.8974,2.8965,2.8951,2.8948,2.894,2.8939,2.8938,2.8938,0,0,0,0,0,0,0,2.9143,2.9138,2.9092,2.9086,2.9082,2.9068,2.9062,2.9051,2.9011,2.9031,2.9027,2.9021,2.8976,2.8967,2.8963,2.8948,2.894,2.8939,2.8938,2.8937,2.8934,2.8935,0,0,0,0,0,0,2.9151,2.914,2.9094,2.909,2.9108,2.9068,2.9061,2.9052,2.9011,2.9004,2.9022,2.9019,2.897,2.8965,2.8961,2.8966,2.8938,2.8937,2.8936,2.8933,2.8934,2.8935,0,0,0,0,0,0,2.9152,2.9147,2.9096,2.9114,2.9107,2.9068,2.9059,2.9052,2.9043,2.9005,2.8997,2.902,2.8969,2.8963,2.8955,2.8964,2.8936,2.8935,2.8933,2.8934,2.8935,2.8979,0,0,0,0,0,0,2.9154,2.9148,2.9151,2.9115,2.9106,2.9091,2.9059,2.9051,2.904,2.9036,2.9001,2.8994,2.8968,2.8958,2.8954,2.8961,2.8934,2.8932,2.8933,2.8935,2.8976,2.8982,2.8986,0,0,0,0,0,2.9156,2.9166,2.9152,2.9146,2.9109,2.9092,2.9087,2.9056,2.9041,2.9044,2.9019,2.8995,2.8964,2.8957,2.8952,2.896,2.8931,2.8933,2.8934,2.8974,2.8981,2.8986,0,0,0,0,0,0,2.9205,2.9161,2.9144,2.9143,2.9121,2.9084,2.9086,2.9064,2.9047,2.9043,2.9006,2.8998,2.8993,2.8976,2.8969,2.8965,2.8944,2.8945,2.8976,2.8982,2.8986,2.899,2.8933,0,0,0,0,0,2.9216,2.9206,2.9168,2.917,2.916,2.9125,2.9116,2.9094,2.9071,2.9062,2.9036,2.9014,2.8999,2.899,2.8974,2.8974,2.8964,2.8977,2.8982,2.8986,2.8986,2.8982,2.8986,2.8941,2.8941,2.8941,0,0,2.9238,2.9212,2.9208,2.9179,2.916,2.9149,2.9118,2.9109,2.91,2.906,2.905,2.9031,2.9003,2.8999,2.8995,2.8984,2.8997,2.8988,2.8991,2.899,2.8985,2.8989,2.8993,2.8942,2.8942,2.8942,0,0,2.9272,2.9253,2.9251,2.9232,2.9203,2.918,2.918,2.9145,2.913,2.9119,2.9088,2.9078,2.9053,2.9034,2.9021,2.9046,2.9022,2.9042,2.9065,2.9062,2.9065,2.9068,2.9075,2.9078,2.9043,2.9043,2.9043,0,2.9302,2.9285,2.9253,2.9245,2.9232,2.9195,2.9192,2.9176,2.9144,2.9135,2.9123,2.9089,2.9069,2.9058,2.9063,2.9055,2.9052,2.9045,2.9068,2.907,2.9072,2.9078,2.9081,2.9045,2.9045,2.9045,2.9045,0,2.9323,2.9312,2.9314,2.9283,2.927,2.9265,2.9231,2.9222,2.9201,2.9179,2.9167,2.9141,2.9117,2.9114,2.9094,2.9099,2.9092,2.9075,2.9053,2.908,2.9084,2.9086,2.9049,2.9048,2.9047,2.9047,0,0,2.9385,2.9335,2.9337,2.9321,2.9286,2.9276,2.9269,2.9246,2.9238,2.9217,2.9209,2.9188,2.917,2.9156,2.9133,2.913,2.9148,2.9112,2.9111,2.9118,2.915,2.9162,2.9165,2.9133,2.9134,2.9134,2.9151,0,2.9411,2.9395,2.9365,2.9359,2.9346,2.9311,2.9304,2.9282,2.926,2.9246,2.9222,2.9207,2.9187,2.9177,2.9173,2.9147,2.9154,2.9146,2.9123,2.9123,2.9129,2.9168,2.9181,2.9199,2.9153,2.9154,2.9154,0,2.9439,2.9419,2.9411,2.9375,2.9369,2.9363,2.9339,2.9327,2.93,2.9284,2.9267,2.9242,2.923,2.9212,2.9194,2.9189,2.9178,2.9164,2.9164,2.9159,2.9139,2.9162,2.9204,2.9206,2.9157,2.9156,2.9156,0,2.9481,2.9453,2.9444,2.9432,2.9391,2.9387,2.937,2.9342,2.933,2.9309,2.93,2.9278,2.9265,2.9248,2.9217,2.9206,2.9202,2.9181,2.9187,2.9187,2.9186,2.9186,2.9225,2.9183,2.9183,2.9183,2.9183,0,2.9512,2.9508,2.9462,2.9456,2.945,2.9416,2.9411,2.939,2.9365,2.9354,2.9323,2.9313,2.9273,2.9258,2.9234,2.9221,2.9217,2.9202,2.9195,2.9204,2.9205,2.9195,2.9192,2.9183,2.9183,2.9183,2.9183,0,2.9558,2.9527,2.9515,2.9477,2.9467,2.9464,2.9431,2.9423,2.94,2.9386,2.938,2.9343,2.9324,2.9291,2.9262,2.9246,2.9237,2.9227,2.9246,2.9242,2.9249,2.9248,2.928,2.9282,2.9241,2.9241,2.9242,0,2.9578,2.9574,2.9535,2.9525,2.9509,2.9494,2.9481,2.9447,2.9434,2.9402,2.9398,2.9376,2.9357,2.9327,2.9296,2.9274,2.9261,2.9274,2.9258,2.9265,2.9259,2.9258,2.9257,2.9278,2.9278,2.9279,2.9279,0,2.9616,2.9601,2.9584,2.9561,2.9546,2.9526,2.9505,2.9499,2.946,2.9447,2.9426,2.9411,2.9381,2.9359,2.9331,2.9312,2.9288,2.9285,2.9284,2.9292,2.9302,2.9294,2.9254,2.9284,2.9283,2.9283,2.9283,2.9283,2.9648,2.9642,2.9613,2.9595,2.9575,2.9555,2.9546,2.9521,2.9504,2.9477,2.9458,2.9438,2.9409,2.937,2.9352,2.9335,2.9325,2.9325,2.9325,2.9325,2.9327,2.9307,2.933,2.933,2.933,2.933,2.933,0,2.9683,2.9663,2.9646,2.9617,2.9601,2.9581,2.9556,2.9545,2.9528,2.9503,2.9485,2.946,2.9438,2.9406,2.9381,2.9373,2.9362,2.9368,2.9367,2.9363,2.9339,2.934,2.9378,2.9378,2.9378,2.9378,2.9378,2.9378,2.9699,2.9687,2.9668,2.9646,2.9625,2.9606,2.9593,2.9574,2.9554,2.9528,2.951,2.949,2.9461,2.9434,2.9412,2.9403,2.9395,2.9404,2.9391,2.9369,2.9365,2.936,2.9362,2.9403,2.9403,2.9416,2.9416,2.9416]}]]